Вернуться в каталог

STARLINK-30909

АктивенСвязьVLEO
NORAD 58363·PAYLOAD·🇺🇸 United States

Запущен Nov 18, 2023 с Cape Canaveral Space Force Station

Loading…

Ближайшие Пролёты (ближайшие 24 часа)

TLE

СвежийSource: CelesTrak SupGP

Эпоха: Sep 15, 2026, 03:01 UTC

1 58363C 23177N   26258.12618056 -.00018451  00000+0 -66842-3 0  2584
2 58363  43.0037   0.7665 0001976 260.0871 304.1477 15.27580434    11

Отслеживайте STARLINK-30909 в реальном времени с AllMySat

Download on the App Store